Hourly Weather Roundup
Issued by NWS Central Illinois

Home | Current Version | Previous Version | Text Only | Print | Product List | Glossary On
Versions: 1 2 3 4 5 6 7 8 9 10 11 12 13 14 15 16 17 18 19 20 21 22 23 24 25 26 27 28 29 30 31 32 33 34 35 36 37 38 39 40 41 42 43 44 45 46 47 48 49 50
000
NZUS43 KILX 200410
HWRILX

Area Weather Roundup
National Weather Service Lincoln IL
1000 PM CST SUN NOV 19 2017

NOTE:  "FAIR" indicates few or no clouds below 12,000 feet, with
       no sigificant weather and/or obstructions to visibility.


CITY           SKY/WX    TMP DP  RH WIND       PRES   REMARKS
Bloomington    CLEAR     29  23  78 SW10      30.14R WCI  20
Champaign      CLEAR     30  24  78 SW9       30.16R WCI  22
Danville       CLEAR     28  23  81 SW5       30.13R WCI  23
Decatur        CLEAR     27  22  81 SW6       30.16S WCI  20
Effingham      CLOUDY    27  24  89 CALM      30.21S
Flora          CLEAR     30  26  84 CALM      30.18S
Galesburg      CLOUDY    32  25  76 S8        30.09F WCI  25
Jacksonville   CLOUDY    31  21  67 S8        30.15S WCI  24
Lacon          CLOUDY    31  23  72 SW6       30.10F WCI  25
Lawrenceville  CLEAR     28  23  81 SW5       30.22R WCI  23
Litchfield     CLEAR     29  23  77 S5        30.18S WCI  24
$$


CITY           SKY/WX    TMP DP  RH WIND       PRES   REMARKS
Lincoln        CLOUDY    32  24  74 SW5       30.15S WCI  27
Macomb         CLOUDY    33  25  72 S8        30.12F WCI  26
Mattoon        CLEAR     31  22  69 SW7       30.16S WCI  24
Mt Carmel AP   CLEAR     28  23  79 SW3       30.22R
Olney-Noble AP CLEAR     27  23  84 CALM      30.22S
Paris AP       CLEAR     28  25  87 SW6       30.18S WCI  22
Peoria         CLOUDY    28  21  75 S7        30.12S WCI  21
Pontiac        CLOUDY    31  26  81 SW9       30.12F WCI  22
Rantoul        CLEAR     32  25  76 W9        30.14S WCI  24
Robinson       CLEAR     27  22  82 SW5       30.21S WCI  21
Springfield    CLOUDY    32  22  66 SW8       30.16S WCI  25
Taylorville    CLOUDY    29  24  81 S6        30.18R WCI  23
$$

...REGIONAL REPORTS...


CITY           SKY/WX    TMP DP  RH WIND       PRES   REMARKS
Chicago O`Hare PTCLDY    31  19  61 SW13      30.06S WCI  21
Kankakee       CLEAR     28  22  78 SW8       30.12F WCI  20
Moline         CLOUDY    35  23  61 SW12      30.05F WCI  27
Mount Sterling CLOUDY    30  23  74 S8        30.11F WCI  23
Mount Vernon   CLEAR     24  22  91 CALM      30.22F
Pittsfield     CLEAR     33  24  68 S7        30.14F WCI  27
Quincy         CLOUDY    32  24  72 S8        30.11F WCI  25
Rockford       CLEAR     27  20  75 S7        30.06S WCI  19
$$


CITY           SKY/WX    TMP DP  RH WIND       PRES   REMARKS
Burlington     CLOUDY    34  25  69 S9        30.07F WCI  27
Cedar Rapids   CLOUDY    32  25  75 S10       29.99F WCI  24
Des Moines     CLOUDY    39  27  62 S12       29.97F WCI  32
Kirksville     CLEAR     38  28  67 S10       30.07F WCI  31
Ottumwa        CLOUDY    37  26  64 S12       30.02F WCI  29
St Louis       CLEAR     35  21  56 CALM      30.18F
$$


CITY           SKY/WX    TMP DP  RH WIND       PRES   REMARKS
Terre Haute    CLEAR     28  21  75 SW3       30.18S
Evansville     CLEAR     29  24  82 CALM      30.24R
Indianapolis   CLEAR     26  21  81 SW7       30.16R WCI  18
Lafayette      CLEAR     27  22  81 W3        30.15R
Madison        PTCLDY    31  21  66 SW10G18   29.97S WCI  22
Milwaukee      MOCLDY    30  20  66 SW12      30.00S WCI  20
$$





USA.gov is the U.S. government's official web portal to all federal, state and local government web resources and services.